C/2018 R4 ( Fuls )

Japanese version
Home page
Updated on October 28, 2018

---------------------------------------------------------------------

* Profile

Discovery Date September 9, 2018
Magnitude 19.1 mag
Discoverer D. C. Fuls (Catalina Sky Survey)

* Pictures

* Orbital Elements

Epoch 2018 Mar. 23.0 TT = JDT 2458200.5
T 2018 Mar. 3.59853 TT                                  MPCW
q   1.7092936            (2000.0)            P               Q
z  +0.0034524      Peri.  345.13093     +0.23977539     +0.95436728
 +/-0.0000640      Node   298.46668     -0.86877046     +0.12909066
e   0.9940988      Incl.   11.68337     -0.43329627     +0.26929296
From 87 observations 2018 Aug. 14-Oct. 9, mean residual 0".5.

* Magnitudes Graph

        m1 = 13.5 + 5 log d + 10.0 log r

---------------------------------------------------------------------

The orbital elements are published on M.P.E.C. 2018-U70.
The magnitudes graphs are made with Comet for Windows.

---------------------------------------------------------------------

Copyright(C) Seiichi Yoshida (comet@aerith.net). All rights reserved.